Tracking 31027 objects as of 19-Jul-2025
HD Live streaming from Space Station
objects crossing your sky now

STARLINK-31621

Track STARLINK-31621 now!
10-day predictions


NORAD ID: 59465
Int'l Code: 2024-068L
Perigee: 489.1 km
Apogee: 491.3 km
Inclination: 43.0 °
Period: 94.3 minutes
Semi major axis: 6861 km
RCS: Unknown
Launch date: April 10, 2024
Source: United States (US)
Launch site: AIR FORCE EASTERN TEST RANGE (AFETR)
Your satellite tracking list
FENGYUN 1C DEB
Track 1 satellite(s)




NASA's NSSDC Master Catalog

Two Line Element Set (TLE):
1 59465U 24068L   25199.55522817 -.00000011  00000-0  91325-5 0  9998
2 59465  42.9994 276.9100 0001562 275.2415  84.8258 15.27580174 72715
Source of the keplerian elements: AFSPC